Location: �terpigny
(49.8910°N, 2.9249°E)
Time: 07:38:39
(UTC+00:00)

Gurwin Techsat 1B - Pass Details

Date: 28 June 2022
Orbit: 812 x 813 km, 98.8° (Epoch: 14 August)

Event Time Altitude Azimuth Distance (km) Brightness Sun altitude
Rises 01:27:56 0° 24° (NNE) 3,348 13.9 -13.8°
Reaches altitude 10° 01:30:40 10° 36° (NE) 2,411 12.4 -13.6°
Maximum altitude 01:35:07 26° 93° (E) 1,541 10.3 -13.3°
Drops below altitude 10° 01:39:31 10° 150° (SSE) 2,396 10.7 -13.0°
Enters shadow 01:40:51 - 157° (SSE) 2,839 11.1 -12.9°
